This is the latest recevied weather packets stored in our database for station/object N5DGC. If no packets are shown the sender has not sent any weather packets the latest 1 day(s).
| Time | Temp. | Humidity | Pressure | Rain* | Wind** | Luminosity | Snow |
|---|---|---|---|---|---|---|---|
| 1777996841 | 12.22° C | 53% | 1231.8 hPa | 0 mm | 0.89 m/s, 356° | 206 W/m² | - |
| 1777996539 | 11.67° C | 54% | 1231.8 hPa | 0 mm | 1.34 m/s, 25° | 207 W/m² | - |
| 1777996234 | 11.67° C | 56% | 1231.9 hPa | 0 mm | 2.68 m/s, 323° | 173 W/m² | - |
| 1777995930 | 11.67° C | 56% | 1231.9 hPa | 0 mm | 1.34 m/s, 66° | 154 W/m² | - |
| 1777995626 | 11.67° C | 55% | 1232.1 hPa | 0 mm | 1.79 m/s, 40° | 180 W/m² | - |
| 1777995324 | 11.67° C | 53% | 1232 hPa | 0 mm | 1.79 m/s, 29° | 170 W/m² | - |
| 1777995021 | 11.67° C | 53% | 1232.1 hPa | 0 mm | 2.24 m/s, 15° | 160 W/m² | - |
| 1777994718 | 11.67° C | 52% | 1232.2 hPa | 0 mm | 2.24 m/s, 349° | 137 W/m² | - |
| 1777994413 | 12.22° C | 56% | 1232.4 hPa | 0 mm | 1.79 m/s, 46° | 158 W/m² | - |
| 1777994109 | 12.22° C | 56% | 1232.2 hPa | 0 mm | 1.79 m/s, 349° | 180 W/m² | - |
| 1777993806 | 11.67° C | 59% | 1232.2 hPa | 0 mm | 1.79 m/s, 14° | 234 W/m² | - |
| 1777993503 | 11.67° C | 60% | 1232.2 hPa | 0 mm | 1.34 m/s, 40° | 254 W/m² | - |
| 1777993203 | 11.67° C | 60% | 1232.2 hPa | 0 mm | 0.89 m/s, 89° | 194 W/m² | - |
| 1777992900 | 11.67° C | 59% | 1232.6 hPa | 0 mm | 1.79 m/s, 344° | 148 W/m² | - |
| 1777992598 | 11.67° C | 59% | 1232.4 hPa | 0 mm | 0.89 m/s, 58° | 131 W/m² | - |
| 1777992296 | 11.67° C | 60% | 1232.4 hPa | 0 mm | 0.89 m/s, 344° | 122 W/m² | - |
| 1777991993 | 11.67° C | 59% | 1232.5 hPa | 0 mm | 1.79 m/s, 48° | 94 W/m² | - |
| 1777991691 | 11.67° C | 59% | 1232.4 hPa | 0 mm | 0.89 m/s, 93° | 89 W/m² | - |
| 1777991388 | 11.67° C | 59% | 1232.5 hPa | 0 mm | 1.79 m/s, 39° | 76 W/m² | - |
| 1777991085 | 11.67° C | 58% | 1232.5 hPa | 0 mm | 1.79 m/s, 56° | 63 W/m² | - |
| 1777990782 | 11.67° C | 57% | 1232.4 hPa | 0 mm | 2.24 m/s, 54° | 48 W/m² | - |
| 1777990479 | 11.67° C | 58% | 1232.5 hPa | 0 mm | 2.24 m/s, 357° | 39 W/m² | - |
| 1777990176 | 11.67° C | 58% | 1232.1 hPa | 0 mm | 1.79 m/s, 65° | 40 W/m² | - |
| 1777989873 | 12.22° C | 58% | 1232.2 hPa | 0 mm | 1.79 m/s, 65° | 43 W/m² | - |
| 1777989571 | 12.22° C | 55% | 1232.5 hPa | 0 mm | 2.24 m/s, 305° | 43 W/m² | - |
* Rain latest hour (hover to see other rain measurements)
** Current wind speed in m/s (hover to see current wind gust speed)